EN

Hourly Weather Trosnyk

Today, 11 April, Sunday

Time Temperature Precipitation Wind Pressure Humidity
00:00 +7°C° 0 mm 2 mps 755 mmHg 86%
01:00 +7°C° 0 mm 3 mps 755 mmHg 87%
02:00 +7°C° 0 mm 1 mps 755 mmHg 76%
03:00 +5°C° 0 mm 2 mps 755 mmHg 88%
04:00 +4°C° 0 mm 2 mps 755 mmHg 91%
05:00 +4°C° 0 mm 2 mps 755 mmHg 89%
06:00 +4°C° 0 mm 2 mps 755 mmHg 89%
07:00 +5°C° 0 mm 2 mps 756 mmHg 87%
08:00 +7°C° 0 mm 3 mps 756 mmHg 84%
09:00 +9°C° 0 mm 3 mps 756 mmHg 80%
10:00 +10°C° 0 mm 3 mps 757 mmHg 80%
11:00 +12°C° 0 mm 4 mps 756 mmHg 77%
12:00 +14°C° 0 mm 3 mps 756 mmHg 71%
13:00 +16°C° 0 mm 3 mps 756 mmHg 70%
14:00 +17°C° 0 mm 3 mps 756 mmHg 64%
15:00 +17°C° 0 mm 3 mps 756 mmHg 64%
16:00 +17°C° 0 mm 3 mps 755 mmHg 63%
17:00 +17°C° 0 mm 3 mps 755 mmHg 65%
18:00 +16°C° 0 mm 2 mps 755 mmHg 71%
19:00 +15°C° 0 mm 2 mps 755 mmHg 82%
20:00 +14°C° 0 mm 2 mps 755 mmHg 85%
21:00 +13°C° 0 mm 2 mps 755 mmHg 88%
22:00 +11°C° 0 mm 3 mps 755 mmHg 90%
23:00 +10°C° 0 mm 3 mps 755 mmHg 91%

Tomorrow, 12 April, Monday

Time Temperature Precipitation Wind Pressure Humidity
00:00 +10°C° 0 mm 2 mps 755 mmHg 92%
01:00 +10°C° 0 mm 2 mps 755 mmHg 93%
02:00 +10°C° 0 mm 2 mps 755 mmHg 93%
03:00 +10°C° 0 mm 1 mps 756 mmHg 93%
04:00 +9°C° 0 mm 2 mps 755 mmHg 96%
05:00 +9°C° 0 mm 2 mps 755 mmHg 97%
06:00 +9°C° 0 mm 2 mps 755 mmHg 97%
07:00 +9°C° 0 mm 2 mps 755 mmHg 96%
08:00 +11°C° 0 mm 3 mps 755 mmHg 91%
09:00 +13°C° 0 mm 3 mps 755 mmHg 85%
10:00 +14°C° 0 mm 4 mps 755 mmHg 79%
11:00 +16°C° 0 mm 3 mps 755 mmHg 70%
12:00 +17°C° 0 mm 3 mps 755 mmHg 68%
13:00 +17°C° 0 mm 3 mps 754 mmHg 68%
14:00 +18°C° 0 mm 3 mps 754 mmHg 66%
15:00 +18°C° 0 mm 3 mps 754 mmHg 66%
16:00 +18°C° 0 mm 4 mps 753 mmHg 66%
17:00 +18°C° 0 mm 4 mps 753 mmHg 66%
18:00 +18°C° 0 mm 3 mps 752 mmHg 70%
19:00 +18°C° 0 mm 1 mps 752 mmHg 78%
20:00 +16°C° 0 mm 1 mps 753 mmHg 78%
21:00 +15°C° 0 mm 1 mps 753 mmHg 81%
22:00 +14°C° 0 mm 2 mps 752 mmHg 86%
23:00 +13°C° 0 mm 2 mps 752 mmHg 85%

Day after tomorrow, 13 April, Tuesday

Time Temperature Precipitation Wind Pressure Humidity
00:00 +13°C° 0 mm 2 mps 752 mmHg 85%
01:00 +13°C° 0 mm 2 mps 752 mmHg 83%
02:00 +12°C° 0 mm 2 mps 752 mmHg 83%
03:00 +10°C° 0 mm 2 mps 751 mmHg 86%
04:00 +10°C° 0 mm 2 mps 751 mmHg 87%
05:00 +10°C° 0 mm 2 mps 751 mmHg 87%
06:00 +9°C° 0 mm 2 mps 751 mmHg 86%
07:00 +10°C° 0 mm 2 mps 751 mmHg 86%
08:00 +13°C° 0 mm 2 mps 751 mmHg 85%
09:00 +15°C° 0 mm 2 mps 751 mmHg 77%
10:00 +16°C° 0 mm 2 mps 751 mmHg 75%
11:00 +17°C° 0 mm 2 mps 750 mmHg 74%
12:00 +19°C° 0 mm 1 mps 750 mmHg 73%
13:00 +20°C° 0 mm 1 mps 750 mmHg 72%
14:00 +19°C° 0 mm 2 mps 749 mmHg 73%
15:00 +20°C° 0.3 mm 1 mps 748 mmHg 72%
16:00 +18°C° 1.3 mm 2 mps 747 mmHg 78%
17:00 +20°C° 0 mm 1 mps 747 mmHg 71%
18:00 +15°C° 0.8 mm 4 mps 747 mmHg 92%
19:00 +14°C° 5.2 mm 4 mps 747 mmHg 96%
20:00 +14°C° 0.1 mm 2 mps 747 mmHg 97%
21:00 +13°C° 0.2 mm 3 mps 747 mmHg 98%
22:00 +13°C° 1.3 mm 1 mps 746 mmHg 99%
23:00 +13°C° 0.1 mm 2 mps 746 mmHg 97%

14 April, Wednesday

Time Temperature Precipitation Wind Pressure Humidity
00:00 +12°C° 0 mm 2 mps 746 mmHg 98%
01:00 +12°C° 0 mm 1 mps 746 mmHg 98%
02:00 +11°C° 0 mm 1 mps 746 mmHg 97%
03:00 +11°C° 0 mm 1 mps 745 mmHg 97%
04:00 +10°C° 0.2 mm 1 mps 745 mmHg 99%
05:00 +10°C° 0.1 mm 1 mps 745 mmHg 99%
06:00 +10°C° 0.4 mm 1 mps 744 mmHg 100%
07:00 +9°C° 0.2 mm 1 mps 745 mmHg 99%
08:00 +9°C° 0.1 mm 1 mps 744 mmHg 99%
09:00 +9°C° 0.2 mm 1 mps 744 mmHg 99%
10:00 +8°C° 0.1 mm 2 mps 744 mmHg 97%
11:00 +9°C° 0 mm 2 mps 744 mmHg 96%
12:00 +11°C° 0 mm 3 mps 743 mmHg 95%
13:00 +12°C° 0.9 mm 3 mps 743 mmHg 95%
14:00 +13°C° 1.7 mm 2 mps 743 mmHg 96%
15:00 +12°C° 2.8 mm 3 mps 743 mmHg 94%
16:00 +12°C° 0 mm 3 mps 742 mmHg 93%
17:00 +12°C° 2.5 mm 4 mps 742 mmHg 97%
18:00 +11°C° 1.4 mm 4 mps 742 mmHg 95%
19:00 +5°C° 0.4 mm 6 mps 743 mmHg 97%
20:00 +5°C° 0.2 mm 5 mps 743 mmHg 97%
21:00 +5°C° 0 mm 5 mps 744 mmHg 96%
22:00 +5°C° 0 mm 4 mps 744 mmHg 96%
23:00 +5°C° 0 mm 4 mps 744 mmHg 96%

15 April, Thursday

Time Temperature Precipitation Wind Pressure Humidity
00:00 +5°C° 0 mm 5 mps 745 mmHg 95%
01:00 +4°C° 0 mm 4 mps 745 mmHg 94%
02:00 +4°C° 0 mm 3 mps 745 mmHg 94%
03:00 +4°C° 0 mm 3 mps 745 mmHg 94%
04:00 +4°C° 0 mm 3 mps 746 mmHg 94%
05:00 +4°C° 0 mm 2 mps 746 mmHg 96%
06:00 +5°C° 0 mm 1 mps 746 mmHg 96%
07:00 +6°C° 0 mm 1 mps 746 mmHg 94%
08:00 +5°C° 0 mm 2 mps 747 mmHg 87%
09:00 +7°C° 0 mm 1 mps 747 mmHg 85%
10:00 +7°C° 0 mm 1 mps 747 mmHg 83%
11:00 +8°C° 0 mm 0 mps 747 mmHg 83%
12:00 +8°C° 0 mm 0 mps 747 mmHg 83%
13:00 +9°C° 0 mm 2 mps 747 mmHg 88%
14:00 +9°C° 0 mm 3 mps 747 mmHg 90%
15:00 +9°C° 0 mm 3 mps 747 mmHg 86%
16:00 +9°C° 0.1 mm 3 mps 747 mmHg 87%
17:00 +9°C° 0.2 mm 2 mps 747 mmHg 91%
18:00 +9°C° 0 mm 2 mps 747 mmHg 90%
19:00 +8°C° 0.1 mm 3 mps 747 mmHg 97%
20:00 +8°C° 0.2 mm 3 mps 747 mmHg 96%
21:00 +8°C° 0.1 mm 2 mps 747 mmHg 98%
22:00 +9°C° 1.1 mm 1 mps 747 mmHg 100%
23:00 +8°C° 0.8 mm 2 mps 747 mmHg 100%

16 April, Friday

Time Temperature Precipitation Wind Pressure Humidity
00:00 +8°C° 0.7 mm 3 mps 747 mmHg 100%
01:00 +8°C° 0.9 mm 2 mps 746 mmHg 100%
02:00 +8°C° 1.2 mm 2 mps 746 mmHg 100%
03:00 +9°C° 1.1 mm 1 mps 746 mmHg 100%
04:00 +9°C° 0.1 mm 1 mps 746 mmHg 100%
05:00 +8°C° 0 mm 0 mps 747 mmHg 100%
06:00 +9°C° 0 mm 1 mps 747 mmHg 100%
07:00 +8°C° 0 mm 2 mps 747 mmHg 97%
08:00 +9°C° 0 mm 3 mps 748 mmHg 93%
09:00 +11°C° 0 mm 3 mps 748 mmHg 91%
10:00 +12°C° 0 mm 3 mps 748 mmHg 86%
11:00 +13°C° 0 mm 3 mps 749 mmHg 83%
12:00 +14°C° 0 mm 3 mps 749 mmHg 80%
13:00 +15°C° 0 mm 4 mps 749 mmHg 76%
14:00 +16°C° 0 mm 5 mps 749 mmHg 75%
15:00 +15°C° 0.2 mm 5 mps 749 mmHg 85%
16:00 +14°C° 0.2 mm 5 mps 749 mmHg 80%
17:00 +15°C° 0 mm 5 mps 750 mmHg 78%
18:00 +14°C° 0 mm 5 mps 750 mmHg 80%
19:00 +13°C° 0 mm 5 mps 750 mmHg 82%
20:00 +11°C° 0 mm 4 mps 751 mmHg 85%
21:00 +10°C° 0 mm 3 mps 751 mmHg 88%
22:00 +10°C° 0 mm 2 mps 751 mmHg 87%
23:00 +9°C° 0 mm 2 mps 752 mmHg 86%
Show more

We Need Your Consent

Meteoprog and our Service Providers may store and access personal data such as cookies, device identifiers or other similar technologies on your device and process such data to personalise content and ads, as well as provide social media features and to analyse the traffic.

  • Store and/or access information on your device

    Cookies, device identifiers or other information can be stored or accessed on your device for the purposes indicated above.

  • Personalised ads and content, ad and content measurement, audience insights, and products development

    Ads and content can be personalised based on a profile. More data can be added to better personalise ads and content. Ad and content performance can be measured. Insights about the audience who saw the ads and content can be derived. Such data can be used to develop or improve user’s experience, systems and software.

By clicking ‘I Agree’ you will allow the use of indicated cookies, device identifiers, web beacons or other similar technologies. Your settings can be changed in the browser on your device.

For certain purposes, legitimate interests may be relied on, rather than consent. You can read more about this in our Privacy and Cookie Policy.